Regional Weather Roundup
Issued by NWS

Home | Current Version | Previous Version | Text Only | Print | Product List | Glossary On
Versions: 1 2 3 4 5 6 7 8 9 10 11 12 13 14 15 16 17 18 19 20 21 22 23 24 25 26 27 28 29 30 31 32 33 34 35 36 37 38 39 40 41 42 43 44 45 46 47 48 49 50
000
ASUS44 KJAN 310520
RWRMS

MISSISSIPPI HOURLY WEATHER ROUNDUP
NATIONAL WEATHER SERVICE JACKSON MS
1200 AM CDT SUN JUL 31 2016

NOTE: "FAIR: INDICATES FEW OR NO CLOUDS BELOW 12,000 FEET WITH NO
SIGNIFICANT WEATHER AND/OR OBSTRUCTIONS TO VISIBILITY.

MSZ001>002-007>008-010>013-018>021-025>028-034>036-310600-
NORTHWEST MISSISSIPPI

CITY           SKY/WX    TMP DP  RH WIND       PRES   REMARKS
CLEVELAND      FAIR      73  73 100 S12       29.99R
GREENWOOD      LGT RAIN  74  71  91 S6        29.97F
GREENVILLE       N/A     73  70  90 MISG      30.01S
OXFORD         FAIR      77  72  83 CALM      30.01S
WINONA         FAIR      73  71  93 CALM      30.00F
$$

MSZ003>006-009-014>017-022>024-029>033-037>039-310600-
NORTHEAST MISSISSIPPI

CITY           SKY/WX    TMP DP  RH WIND       PRES   REMARKS
ABERDEEN       FAIR      75  57  53 S6        30.01F
COLUMBUS AFB   CLEAR     75  75 100 S2        30.00F
GOLDN TRIANGLE CLEAR     75  70  83 CALM      30.01R
TUPELO         MOCLDY    76  71  85 SE5       29.99F
$$

MSZ040-058-310600-
CENTRAL MISSISSIPPI

CITY           SKY/WX    TMP DP  RH WIND       PRES   REMARKS
JACKSON INTL   HVY RAIN  73  70  90 W8G24     30.08R FOG
JACKSON HAWKNS LGT RAIN  76  70  82 NW20G33   30.09R
MADISON        CLOUDY    70  68  94 W15G24    30.09R THUNDER
MERIDIAN KEY   CLOUDY    78  74  87 SW3       30.04R
MERIDIAN NAS   PTCLDY    76  70  82 CALM      30.03S
VICKSBURG VKS  CLOUDY    73  72  94 E7        30.06F FOG
$$

MSZ059>079-310600-
SOUTH MISSISSIPPI

CITY           SKY/WX    TMP DP  RH WIND       PRES   REMARKS
BROOKHAVEN     FAIR     N/A N/A N/A CALM      30.07F
COLUMBIA       FAIR      77  75  94 CALM      30.08F
HATTIESBURG    PTCLDY    76  74  93 CALM      30.04F
MCCOMB         PTCLDY    78  74  87 CALM      30.05F
NATCHEZ        CLOUDY    75  70  83 E3        30.06S
PINE BELT      CLOUDY    73  72  94 CALM      30.05S
$$

MSZ080>082-310600-
COASTAL MISSISSIPPI

CITY           SKY/WX    TMP DP  RH WIND       PRES   REMARKS
BILOXI         CLEAR     82  79  89 CALM      30.03S HX  92
PASCAGOULA     CLEAR     77  77 100 CALM      30.03S
GULFPORT       CLEAR     80  77  90 CALM      30.02F
$$

LAZ007>009-015>016-023>026-310600-
NORTHEAST LOUISIANA

CITY           SKY/WX    TMP DP  RH WIND       PRES   REMARKS
BASTROP        MOCLDY    72  71  98 E3        30.05R
TALLULAH/VBURG MOCLDY    74  71  91 E8        30.04F
VIDALIA        FAIR      76  72  87 NE9       30.08S
$$




USA.gov is the U.S. government's official web portal to all federal, state and local government web resources and services.